Location: Stara Lesna
(49.1528°N, 20.2911°E)
Time: 03:30:49
(UTC+02:00)

Meteor 1-13 Rocket - Pass Details

Date: 13 July 2020
Orbit: 830 x 913 km, 81.3° (Epoch: 11 August)

Event Time Altitude Azimuth Distance (km) Brightness Sun altitude
Rises 03:10:52 0° 345° (NNW) 3,504 8.0 -12.0°
Reaches altitude 10° 03:13:22 10° 342° (NNW) 2,548 7.2 -11.7°
Maximum altitude 03:19:03 60° 264° (W) 989 4.4 -11.2°
Drops below altitude 10° 03:24:33 10° 186° (S) 2,475 6.1 -10.6°
Enters shadow 03:24:54 - 185° (S) 2,605 6.2 -10.6°
